AQI (39)

Current Conditions for Foresthill, CA. Mostly sunny, Dry   
Visibility: 10 miles
Foresthill Advisory text:

  Summary / Temperature 

Current Temperature
57.7°F
14.3°C
(24/hr Ago)
58.4°F
(Apparent temp)
57.6°F
Cool
Wind Chill Graphs
57.7°F 

59.7°F/ 15.4°C
 --- Virtual Temp: 60.3°F ---

 Temp Rate:

 24/hr Difference:

 Avg Running Temp:

 Todays High:

 Todays Low:

 Y-days High:

 Y-days Low:

 Todays WChill:

 Y-days WChill:

 Evapotranspiration:

+0.8°F/hr 

-0.7°F

57.4°F

58.2°F 2:28pm

44.7°F 6:20am

60.3°F 12:29pm

47.8°F 11:22pm

34.8°F 6:21am

43.5°F 10:04pm

0.044 in

115' Above Ground

 Temperature:

 6'AGL VRS 115'AGL:

 Avg Running Temp:

 Humidity:

 Todays High:

 Todays Low:

 Y-days High:

 Y-days Low:

60.0°F 

+2.3°F

60.2°F

65% 

61.0°F 1:54pm

46.0°F 5:44am

66.0°F 12:07pm

51.0°F 9:50pm

Temp & Humidity Graphs

  Wind 

Wind Speed

 Calm

Gusting to

 None

Calm

129°  

Calm

 Avg speed:

 Wind Run:

 Peak Gust:

Calm 

33.0 miles

  31.0 mph 6:16am

  Almanac  

Moon age: 29 days,9 hours,43 minutes,0%

New moon
0%
Illuminated
29 days in cycle

 Moonrise:

 Moonset:

 Sunrise:

 Sunset:

 Solar Noon:

6:57am

5:02pm

7:18am

5:04pm

12:13pm

1min 27s more daylight tomorrow 

  Solar Radiation 

(Current Solar)
  174 W/m2 (56%)
(Todays High)
 647 W/m2@1:14pm
Feels like: 63.7°F in the sun

Rain

 Rain Today:

 Rain Rate (/hr):

 Rain last hour:

 Rain Yesterday:

 This Month:

 Season Total:

4 Days Since Last Rain Day

0.11 in

0.000 in

0.00 in

0.00 in

5.39 in

18.70 in

Updated Time

Updated: 1/16/18  3:02pm

(Updated  sec ago)

Humidity & Barometer

 Humidity:

 Wetbulb:

 Dew Point:

 Barometer:

74% 

53.2°F 

49.5°F 

30.237 inHg 

 Baro Trend:  Steady 
Northern Calif
Preparedness
Fire 
Level 

    UV Index  

(Current UV)
0.6  Low
(Todays High) @ 12:54pm
2.4   Low

National Weather Service Forecast

This
Afternoon
This Afternoon: Partly Sunny
Partly Sunny
Tonight

Tonight: Mostly Cloudy
Mostly Cloudy
Wednesday

Wednesday: Partly Sunny
Partly Sunny
Wednesday
Night
Wednesday Night: Mostly Cloudy then Chance Light Rain
Mostly Cloudy then Chance Light Rain
Thursday

Thursday: Heavy Rain
Heavy Rain
Thursday
Night
Thursday Night: Rain
Rain
Hi 56 °F Lo 46 °F Hi 60 °F Lo 46 °F Hi 52 °F Lo 39 °F

Foresthill Probe 2 Stats  
Foresthill Probe 2: is located on Thomas Street
at 3000 feet. The main Foresthill Weather site
is located on Melody ln at the 2860 foot elevation

Calm
58.4°F
14.7°C
Temp Rate:
+1.2°F
Calm
Gusting to
None
(Humidity)
68%
Calm
197°  
Updated: 16/01/18 - 14:58:29
 Todays High: 58.5°F 14:56
 Todays Low: 44.1°F 05:57
 Rain Today: 0.11 in
 Season Total: 19.45 in

Foresthill Wx: Monthly,Yearly, Highs and Lows 

Foresthill  
This Weather Data is coming from the main Foresthill
Weather site located on Melody ln at the 2860 foot
elevation
Not Foresthill Probe 2
Weather Data
Month
  High
Month
  Low
Year
High
Year
Low
Temp 63.0°F
1/14/18
39.9°F
1/7/18
63.0°F
1/14/18
39.9°F
1/7/18
Humidity 100%
1/8/18
37%
1/1/18
100%
1/8/18
37%
1/1/18
Heat Index 64.3°F
1/14/18
44.1°F
1/7/18
64.3°F
1/14/18
44.1°F
1/7/18
Wind Chill 63.0°F
1/14/18
31.8°F
1/7/18
63.0°F
1/14/18
31.8°F
1/7/18
Wind Gust 31 mph
1/16/18
0 mph
1/1/18
31 mph
1/16/18
0 mph
1/1/18
Barometer 30.44 in
1/12/18
29.63 in
1/9/18
30.44 in
1/12/18
29.63 in
1/9/18
ET 0.08 in
1/1/18
0.00 in
1/1/18
0.08 in
1/1/18
0.00 in
1/1/18
Dew Point 52.5°F
1/5/18
27.1°F
1/1/18
52.5°F
1/5/18
27.1°F
1/1/18
Pacific Satellite US Radar Satellite Imagery Sacramento,CA.  (click to enlarge)
NWS Weather Forecast - Summary
Updated: Tue Jan 16 2018 .DISC - 2:05pm (PST)
Current Interstate Highway Conditions for I-80 & US-50

[I 80: IN THE SAN FRANCISCO BAY AREA - SOLANO CO]
no traffic restrictions are reported for this area.


[I 80: IN THE NORTHERN CALIFORNIA AREA & SIERRA NEVADA]
no traffic restrictions are reported for this area.

[US 50: IN THE SACRAMENTO VALLEY & THE LAKE TAHOE BASIN]
no traffic restrictions are reported for this area.
[capital city freeway]
no traffic restrictions are reported for this area.
NWS Weather Forecast: This Afternoon and Tonight (Updated: Tue, 16-Jan-2018 2:31am PST)
This
Afternoon
This Afternoon: Partly Sunny
Partly Sunny

Hi 56 °F
NWS forecast: Partly sunny. High near 56, with temperatures falling to around 51 in the afternoon. West southwest wind around 3 mph.
Tonight

Tonight: Mostly Cloudy
Mostly Cloudy

Lo 46 °F
NWS forecast: Mostly cloudy, with a low around 46. East northeast wind around 5 mph.
YR.NO 10 Day Weather forecast
Last update: 01/15/2018 @ 23:33
Next update: 01/16/2018 @ 12:00
Provided by: 22
      Temperature Precipitation Pressure Wind  
Today
01/16/2018
12:00 18:00 55°F   30.23 inHg Light air from west-southwest 3 mph
  18:00 00:00 46°F   30.21 inHg Light air from north-northeast 1 mph
    (Click to enlarge)
meteogram

    Forecast for next 9 days

      Temperature Precip Pressure Wind  
Wednesday
01/17/2018
00:00 06:00 43°F   30.23 inHg Light air from east-northeast 3 mph
  06:00 12:00 39°F   30.23 inHg Light air from east-northeast 3 mph
  12:00 18:00 61°F   30.22 inHg Light air from south-southwest 3 mph
  18:00 00:00 46°F   30.22 inHg Light air from east-northeast 1 mph
      Temperature Precip Pressure Wind  
Thursday
01/18/2018
00:00 06:00 45°F   30.19 inHg Light air from east-southeast 1 mph
  06:00 12:00 45°F   30.13 inHg Light air from southeast 2 mph
  12:00 18:00 54°F 0.46 in 30.07 inHg Gentle breeze from south 11 mph
  16:00 22:00 46°F 0.33 in 30.03 inHg Gentle breeze from south-southwest 10 mph
  22:00 04:00 41°F 0.26 in 30.08 inHg Light breeze from south-southwest 7 mph
      Temperature Precip Pressure Wind  
Friday
01/19/2018
04:00 10:00 37°F 0.15 in 30.08 inHg Light breeze from south-southwest 6 mph
  10:00 16:00 37°F 0.20 in 30.12 inHg Light breeze from south 6 mph
  16:00 22:00 37°F   30.06 inHg Light air from east-southeast 1 mph
  22:00 04:00 27°F   30.09 inHg Light breeze from east-northeast 5 mph
      Temperature Precip Pressure Wind  
Saturday
01/20/2018
04:00 10:00 23°F   30.09 inHg Light breeze from east-northeast 5 mph
  10:00 16:00 37°F   30.15 inHg Light air from east 1 mph
  16:00 22:00 39°F   30.17 inHg Light breeze from west-southwest 4 mph
  22:00 04:00 27°F   30.27 inHg Light breeze from east-northeast 6 mph
      Temperature Precip Pressure Wind  
Sunday
01/21/2018
04:00 10:00 27°F   30.27 inHg Light breeze from east 6 mph
  10:00 16:00 37°F 0.41 in 30.27 inHg Gentle breeze from south-southeast 9 mph
  16:00 22:00 34°F 0.57 in 30.16 inHg Moderate breeze from south-southeast 13 mph
  22:00 04:00 36°F 0.14 in 30.18 inHg Gentle breeze from south-southeast 10 mph
      Temperature Precip Pressure Wind  
Monday
01/22/2018
04:00 10:00 34°F 0.13 in 30.18 inHg Light breeze from south 7 mph
  10:00 16:00 37°F 0.20 in 30.21 inHg Light breeze from south 5 mph
  16:00 22:00 37°F 0.10 in 30.14 inHg Light breeze from south 5 mph
  22:00 04:00 34°F   30.18 inHg Light air from east 3 mph
      Temperature Precip Pressure Wind  
Tuesday
01/23/2018
04:00 10:00 32°F   30.17 inHg Light breeze from east-northeast 4 mph
  10:00 16:00 39°F   30.20 inHg Light air from east-northeast 2 mph
  16:00 22:00 41°F   30.14 inHg Light air from west 3 mph
  22:00 04:00 23°F   30.19 inHg Light breeze from east-northeast 5 mph
      Temperature Precip Pressure Wind  
Wednesday
01/24/2018
04:00 10:00 32°F 0.08 in 30.23 inHg Light breeze from east-northeast 5 mph
  10:00 16:00 37°F   30.32 inHg Light air from east-southeast 2 mph
  16:00 22:00 39°F   30.27 inHg Light breeze from north-northeast 4 mph
  22:00 04:00 28°F   30.25 inHg Light breeze from northeast 6 mph
      Temperature Precip Pressure Wind  
Thursday
01/25/2018
04:00 10:00 32°F   30.17 inHg Gentle breeze from east-northeast 8 mph
  10:00 16:00 45°F   30.17 inHg Gentle breeze from east-northeast 8 mph

NOAA Local Storm Report
HALLETTSVILLE   ( More )
DATE
01/16/2018
TIME
4:27 PM
COUNTY
LAVACA
STATE
TX
GEOGRAPHIC
29.44N 96.94W
SOURCE
LAW ENFORCEMENT
SLEET ESTIMATED AT 0.0 INCH
law enforcement reports multiple minor traffic accidents due to icy roads throughout lavaca county.
How Close Are We To this Month's Temperature Record ?
Updated Tuesday, Jan 16, 2018- 2:55:00 PM

Current Temperature: 57.7°F

January's High: Temperature Record 71.3°F - Set on Sat, Jan 24, 2015 - 3:19:00 PM
We are currently 13.6°F Less than this Month's record High

January's Low: Temperature Record 24.7°F - Set on Sun, Jan 13, 2013 - 7:29:00 AM
We are currently 33°F More than this Month's record Low

Weather History For Tuesday, January 16, 2018


On this Day - In Weather History ...
Data courtesy of weatherforyou.com
powered by Cumulus v1.9.3 (1059)
Ambient Weather VWS v14.00
Top Contact Website Map Copyright © 2007 - 2018 Foresthillweather.com Never base important decisions on this or any weather information obtained from the Internet